STARLINK-35218 (66340 NORAD) Tracking and Keplerian Element Data

This shows tracking and keplerian element data for the satellite.

Feedback or suggestion? Click here.




ElementValue
Catalog66340
NameSTARLINK-35218
Epoch Orbit808
Epoch Day354.22677694
Epoch Year2025
RAAN301.9614
Inclination42.9989
Eccentricity9.66E-05
Argument of Perigee261.4334
Mean Anonmoly98.6413
Mean Motion15.40691394
Decay Rate0.0002208
L11 66340U 25253X 25354.22677694 .00022080 00000+0 53446-3 0 9994
L22 66340 42.9989 301.9614 0000966 261.4334 98.6413 15.40691394 8089



Live tracking and technical data element details for STARLINK-35218 (NORAD 66340). STARLINK-35218 can be tracked NOW for your location showing map with azimuth and elevation plus other details from your city location.







IsCatalogInMostPopularTable: catalog: 66340, numindb: 5
Update: records affected: 1



GetName: 66340 STARLINK-35218

Hit Count: updated at: Mon, 09 Feb 2026 08:57:42 GMT